Weather History for Abilene, TX

Change the Weather History Date:

Monday, March 25, 2013

  Actual Average Record
Temperature  
Mean Temperature 41 °F 59 °F  
Max Temperature 54 °F 71 °F 93 °F (1899)
Min Temperature 28 °F 46 °F 22 °F (1955)
Degree Days  
Heating Degree Days 24 8  
Month to date heating degree days 236 257  
Since 1 July heating degree days 2071 2390  
Cooling Degree Days 0 1  
Month to date cooling degree days 26 20  
Year to date cooling degree days 32 25  
Moisture  
Dew Point 16 °F    
Average Humidity 41    
Maximum Humidity 63    
Minimum Humidity 19    
Precipitation  
Precipitation 0.00 in 0.06 in 1.07 in (1934)
Month to date precipitation 0.56 1.42  
Year to date precipitation 2.45 3.80  
Sea Level Pressure  
Sea Level Pressure 30.31 in    
Wind  
Wind Speed 7 mph (NE)    
Max Wind Speed 13 mph    
Max Gust Speed 20 mph    
Visibility 10 miles    
Events      
T = Trace of Precipitation, MM = Missing Value Source: NWS Daily Summary

Daily Weather History Graph

Daily Weather History Graph

Search for Another Location

Airport:

Trip Planner

Search our weather history database for the weather conditions in past years. The results will help you decide how hot, cold, wet, or windy it might be!

Date:

Astronomy

Mar. 25, 2013 Rise Set
Actual Time 7:35 AM CDT 7:54 PM CDT
Civil Twilight 7:11 AM CDT 8:18 PM CDT
Nautical Twilight 6:42 AM CDT 8:47 PM CDT
Astronomical Twilight 6:13 AM CDT 9:16 PM CDT
Moon 6:30 PM CDT (3/25) 6:15 AM CDT (3/25)
Length of Visible Light 13h 07m
Length of Day
12h 18m
Waxing Gibbous, 96% of the Moon is Illuminated
Mar 25
Waxing Gibbous
Mar 27
Full
Apr 2
Last Quarter
Apr 10
New
Apr 18
First Quarter

Hourly Weather History & Observations

Time (CDT) Temp. Windchill Dew Point Humidity Pressure Visibility Wind Dir Wind Speed Gust Speed Precip Events Conditions
12:52 AM 37.0 °F 32.4 °F 15.1 °F 41% 30.21 in 10.0 mi NE 5.8 mph - N/A   Clear
1:52 AM 36.0 °F 28.5 °F 15.1 °F 43% 30.23 in 10.0 mi ENE 10.4 mph - N/A   Clear
2:52 AM 34.0 °F 28.0 °F 17.1 °F 50% 30.24 in 10.0 mi ENE 6.9 mph - N/A   Clear
3:52 AM 33.1 °F 26.1 °F 16.0 °F 50% 30.25 in 10.0 mi NE 8.1 mph - N/A   Clear
4:52 AM 32.0 °F 27.5 °F 17.1 °F 54% 30.26 in 10.0 mi NE 4.6 mph - N/A   Clear
5:52 AM 28.0 °F - 17.1 °F 63% 30.28 in 10.0 mi Calm Calm - N/A   Clear
6:52 AM 30.0 °F 26.5 °F 18.0 °F 61% 30.31 in 10.0 mi North 3.5 mph - N/A   Clear
7:52 AM 28.9 °F 25.2 °F 18.0 °F 64% 30.33 in 10.0 mi North 3.5 mph - N/A   Clear
8:52 AM 33.1 °F - 19.0 °F 56% 30.36 in 10.0 mi Calm Calm - N/A   Clear
9:52 AM 39.0 °F 34.0 °F 19.0 °F 45% 30.37 in 10.0 mi NE 6.9 mph - N/A   Clear
10:52 AM 43.0 °F 37.2 °F 16.0 °F 34% 30.38 in 10.0 mi North 10.4 mph - N/A   Clear
11:52 AM 45.0 °F 40.1 °F 18.0 °F 34% 30.39 in 10.0 mi ENE 9.2 mph 16.1 mph N/A   Clear
12:52 PM 46.9 °F - 18.0 °F 32% 30.37 in 10.0 mi NE 6.9 mph - N/A   Clear
1:52 PM 48.9 °F - 18.0 °F 29% 30.34 in 10.0 mi ENE 6.9 mph - N/A   Clear
2:52 PM 51.1 °F - 17.1 °F 26% 30.32 in 10.0 mi NNE 5.8 mph - N/A   Clear
3:52 PM 52.0 °F - 16.0 °F 24% 30.30 in 10.0 mi North 9.2 mph - N/A   Clear
4:52 PM 53.1 °F - 16.0 °F 23% 30.28 in 10.0 mi Variable 5.8 mph - N/A   Clear
5:52 PM 53.1 °F - 12.9 °F 20% 30.29 in 10.0 mi North 9.2 mph - N/A   Clear
6:52 PM 51.1 °F - 12.9 °F 22% 30.30 in 10.0 mi North 10.4 mph - N/A   Clear
7:52 PM 48.0 °F - 14.0 °F 26% 30.32 in 10.0 mi North 8.1 mph - N/A   Clear
8:52 PM 45.0 °F 41.2 °F 16.0 °F 31% 30.35 in 10.0 mi NNE 6.9 mph - N/A   Clear
9:52 PM 42.1 °F 38.4 °F 18.0 °F 38% 30.37 in 10.0 mi East 5.8 mph - N/A   Clear
10:52 PM 42.1 °F 38.4 °F 15.1 °F 34% 30.38 in 10.0 mi ENE 5.8 mph - N/A   Clear
11:52 PM 35.1 °F 30.1 °F 18.0 °F 50% 30.39 in 10.0 mi SE 5.8 mph - N/A   Clear